Wind_Speed
37 37 37 37 38 39 40 41 41 42 44 45 46 46 47 47 47 46 45 44 44 43 42 41 39 38 38 38 37 36 36 35 34 33 33 32 32 31 29 29 28 27 26
37 37 38 37 38 39 39 40 41 42 43 45 46 47 47 47 48 47 46 45 45 45 44 43 41 39 38 39 38 38 38 37 36 35 35 34 34 33 32 31 30 29 28
37 37 37 37 38 39 39 40 41 42 43 44 45 47 48 48 48 48 47 46 46 46 46 44 43 42 41 40 40 40 40 39 38 38 37 36 36 35 35 34 33 31 30
37 37 37 38 39 40 40 40 41 42 42 43 45 46 48 49 48 48 48 47 48 47 47 46 44 42 42 41 40 40 41 40 40 39 39 38 37 37 37 36 35 34 33
36 38 38 39 40 40 41 41 42 42 43 43 44 46 48 49 49 49 49 49 49 49 48 47 47 45 43 42 42 41 41 41 41 40 40 39 38 38 38 37 36 36 35
34 35 37 37 39 40 40 41 42 42 43 44 44 46 47 49 50 50 51 50 50 50 49 49 47 47 45 44 43 42 42 41 41 40 40 40 39 39 39 38 38 38 36
33 34 35 36 37 39 40 41 41 42 44 44 44 46 47 49 50 50 51 51 51 51 50 50 49 47 45 45 44 43 42 42 42 42 41 41 40 39 39 40 39 39 38
33 34 35 36 37 38 39 40 41 42 43 45 44 46 48 49 50 50 50 51 51 51 51 50 50 49 47 46 47 47 45 44 43 43 42 42 42 42 41 41 40 40 39
33 34 35 35 36 37 38 39 40 41 43 44 45 45 48 50 51 51 50 51 51 51 51 51 51 50 49 48 47 48 47 46 45 44 43 43 43 43 44 42 41 41 41
32 33 33 34 35 35 36 37 38 39 41 43 45 45 46 48 51 52 51 51 51 51 51 52 52 50 50 49 48 48 47 48 47 45 45 44 44 43 44 44 42 41 41
33 32 33 33 33 34 35 36 37 38 40 42 43 45 45 47 49 51 52 52 51 51 52 52 52 51 51 50 49 49 48 47 48 48 47 46 46 45 45 45 44 44 43
32 32 33 33 34 34 34 35 37 38 39 40 42 42 44 45 47 49 51 52 52 52 51 51 52 52 51 51 50 49 49 49 49 48 48 47 48 48 47 46 46 45 45
32 33 33 33 34 34 35 37 38 38 38 39 40 41 43 44 46 48 49 50 52 52 52 52 52 52 52 51 51 50 51 51 51 50 50 50 49 49 49 48 48 46 45
33 33 34 34 35 35 36 37 38 38 38 39 40 41 42 44 45 46 48 49 50 51 51 51 52 52 53 53 51 51 51 52 51 51 52 51 51 51 51 51 50 49 48
32 33 33 34 35 35 36 37 38 38 38 39 39 41 41 43 44 44 45 46 48 49 51 52 52 52 53 54 53 53 53 53 53 53 53 52 52 53 53 52 51 50 50
32 33 33 34 35 35 36 37 37 37 38 37 38 40 41 42 43 43 43 44 46 48 49 50 52 53 54 54 54 54 54 54 53 53 54 54 53 53 54 54 52 51 50
31 31 32 33 34 35 36 36 36 36 37 38 38 39 39 40 42 42 43 44 45 47 48 48 50 51 53 54 54 53 54 54 54 54 54 54 54 54 54 55 53 52 51
31 31 31 32 32 33 34 35 35 35 36 37 37 38 39 40 40 40 41 43 44 44 45 46 47 49 51 53 54 53 54 54 54 54 54 54 54 54 55 56 55 53 52
31 30 30 31 31 32 32 32 33 34 35 36 36 37 38 39 40 40 41 42 42 42 43 43 44 45 46 49 51 52 53 53 52 53 53 54 54 54 55 56 55 54 53
29 28 27 28 28 29 31 31 31 32 32 33 34 35 36 38 38 39 41 42 42 43 42 41 42 43 45 47 48 50 51 51 51 52 52 53 53 53 55 55 55 54 53
29 28 27 27 27 27 28 29 30 31 32 32 33 34 35 36 37 38 39 39 40 41 42 41 40 41 42 44 46 47 49 50 50 50 51 51 51 52 54 54 53 53 53
29 28 27 26 26 26 27 28 29 30 31 32 33 34 34 35 36 37 37 38 38 39 41 42 41 41 42 44 45 45 46 46 47 48 48 48 49 50 52 52 51 52 53
28 28 28 26 26 25 26 27 28 29 30 31 32 32 32 33 35 36 36 37 36 36 37 38 39 40 40 41 42 43 44 44 45 46 46 46 47 48 49 50 50 51 52
28 27 27 26 26 25 25 26 27 27 28 29 30 30 30 30 32 33 34 34 35 35 36 36 37 38 38 38 38 41 42 43 44 44 44 45 46 47 48 49 49 50 51
27 26 26 26 25 24 25 24 24 25 27 28 29 30 31 31 31 32 33 34 34 34 34 34 35 36 36 36 37 38 39 42 44 44 44 45 45 46 47 47 48 49 49
26 25 25 26 26 26 26 25 25 25 25 26 27 28 30 32 32 32 33 34 34 34 34 34 34 35 35 36 37 38 38 40 41 42 42 43 44 45 46 47 48 49 49
Wind_Direction
254 254 254 252 249 248 246 244 243 242 241 240 239 238 237 237 237 238 240 240 239 240 240 242 243 244 243 242 242 243 244 244 245 247 246 244 245 245 244 246 247 248 247
255 254 254 253 251 250 248 245 244 243 242 240 239 238 238 237 238 239 240 241 241 240 240 242 242 242 242 242 242 242 244 244 245 246 246 246 245 246 245 246 246 247 248
255 255 254 253 251 250 249 247 245 244 243 242 241 239 238 238 238 239 239 240 241 241 240 241 240 242 243 243 243 243 244 245 245 246 248 248 246 246 246 245 246 248 249
255 255 254 253 252 250 249 248 247 245 244 243 243 241 239 238 238 238 239 239 240 241 240 239 240 242 244 244 244 244 244 245 245 246 247 248 248 247 246 245 246 248 249
256 255 254 253 252 250 249 249 247 246 245 245 245 243 241 239 238 238 238 239 240 240 239 240 242 243 245 245 245 244 244 246 246 245 246 248 249 248 247 247 246 247 248
259 257 255 255 254 252 251 249 248 247 246 246 245 243 241 240 238 238 238 238 239 240 239 240 242 244 245 245 243 244 244 245 245 245 246 247 249 249 248 248 248 247 247
261 260 258 256 253 252 252 250 250 248 247 246 246 243 242 241 240 239 238 238 239 240 240 240 242 245 245 244 244 244 244 245 245 245 246 247 248 249 249 249 248 248 248
263 263 262 258 254 253 253 250 249 248 248 248 247 244 242 241 240 239 238 239 239 240 240 240 242 243 245 246 246 245 244 244 245 245 247 248 249 249 249 250 249 249 248
266 265 263 259 256 254 254 251 249 247 247 247 246 246 244 242 241 239 238 238 239 239 240 241 242 243 246 246 246 245 245 245 246 247 247 249 251 250 249 250 250 251 252
269 268 264 261 258 256 254 252 252 251 249 247 246 246 246 243 241 239 238 239 240 240 240 240 241 242 245 245 245 245 246 246 246 248 249 249 250 250 250 249 249 251 253
270 269 267 262 259 257 255 254 252 251 250 249 248 247 244 242 241 240 239 240 240 239 239 239 240 241 243 245 246 246 245 246 247 248 249 250 251 251 251 250 250 252 253
271 271 268 263 259 256 254 254 253 253 253 251 249 247 244 242 242 241 241 241 240 240 240 240 241 241 243 245 245 245 245 245 247 248 249 250 251 251 250 250 251 253 255
274 272 269 267 262 258 255 255 254 254 253 252 250 248 245 243 242 243 242 241 241 240 241 241 241 242 244 245 246 246 246 246 247 248 249 250 251 251 250 250 251 253 255
275 271 270 268 265 261 257 255 255 254 253 252 250 248 246 244 243 243 243 242 241 240 241 241 242 243 245 246 247 246 246 247 246 247 249 250 250 251 251 251 252 253 255
275 271 271 269 266 263 259 257 256 254 253 253 250 249 247 245 243 243 242 242 242 242 243 242 243 244 245 246 247 248 247 247 247 247 248 250 250 250 251 251 252 254 254
275 274 272 269 266 263 260 258 256 255 253 252 250 249 248 246 243 242 242 243 243 243 244 244 245 246 246 246 247 247 248 247 247 247 248 249 250 250 250 250 251 253 254
276 274 271 270 267 263 261 259 258 256 253 251 249 248 246 245 244 244 244 245 245 244 244 245 245 245 245 245 246 246 247 247 247 247 248 249 250 250 249 249 250 252 254
276 274 272 270 268 264 261 258 258 257 255 253 251 249 248 247 246 246 245 246 245 246 246 245 245 245 245 246 247 246 246 246 246 247 248 249 250 250 250 250 250 252 254
275 273 272 270 267 264 261 258 256 256 255 255 253 250 249 248 247 247 245 245 247 248 248 247 247 246 245 245 245 244 244 244 245 247 248 250 251 251 251 251 252 253 254
274 273 272 269 266 263 260 257 254 253 253 253 253 251 251 249 249 249 247 248 250 249 249 248 247 247 246 245 245 245 245 245 247 248 249 250 251 251 251 251 252 253 254
273 272 272 270 267 262 260 257 254 251 251 252 251 250 250 250 250 249 247 247 248 248 248 248 248 247 248 247 246 245 246 247 248 248 250 251 251 251 251 252 253 254 255
273 271 271 270 267 263 259 256 254 252 251 252 250 249 249 249 251 252 250 249 248 248 249 250 250 248 249 249 247 248 248 247 248 248 249 249 250 251 252 252 253 255 256
275 271 269 268 266 264 260 256 255 253 252 251 250 250 250 251 251 252 251 250 248 247 249 249 249 248 249 249 247 246 246 247 248 248 250 251 251 251 251 252 253 255 256
275 273 268 266 265 264 262 259 256 255 253 252 251 249 249 251 252 251 251 250 250 250 251 250 250 248 246 246 246 247 247 248 249 250 252 252 252 252 252 253 254 256 256
274 272 268 265 263 261 259 258 257 256 254 253 252 249 249 250 251 251 251 252 253 253 253 252 251 248 248 249 249 251 251 251 251 252 252 253 253 253 253 254 255 256 257
271 270 268 266 264 261 259 259 258 257 255 253 252 251 251 251 252 252 252 252 253 253 254 253 253 251 252 254 254 255 256 254 253 254 254 254 253 254 254 256 256 256 257
Height
5676 5678 5680 5682 5684 5686 5688 5690 5693 5697 5701 5706 5711 5717 5722 5727 5732 5738 5742 5747 5751 5755 5760 5764 5768 5771 5774 5777 5780 5784 5786 5789 5792 5795 5797 5800 5803 5806 5809 5811 5814 5816 5818
5666 5669 5671 5672 5674 5676 5679 5681 5684 5687 5691 5695 5700 5706 5712 5717 5722 5727 5732 5737 5741 5745 5750 5754 5758 5761 5765 5768 5771 5775 5778 5781 5784 5787 5789 5792 5796 5799 5801 5804 5806 5809 5811
5656 5658 5660 5662 5663 5666 5669 5672 5675 5678 5681 5685 5689 5694 5700 5706 5711 5716 5721 5726 5730 5735 5740 5743 5748 5752 5755 5759 5762 5765 5769 5772 5775 5778 5781 5784 5787 5790 5793 5796 5799 5802 5804
5645 5648 5650 5652 5654 5656 5659 5662 5665 5668 5671 5674 5678 5683 5688 5694 5699 5704 5710 5715 5719 5724 5728 5733 5737 5741 5746 5749 5753 5756 5759 5762 5765 5768 5771 5775 5778 5781 5784 5788 5791 5794 5796
5634 5637 5639 5642 5644 5646 5648 5651 5654 5657 5660 5663 5667 5671 5676 5681 5687 5692 5698 5703 5708 5713 5718 5722 5727 5731 5735 5739 5743 5746 5749 5752 5756 5759 5762 5765 5768 5771 5775 5778 5782 5785 5788
5625 5626 5629 5631 5633 5635 5637 5640 5643 5646 5649 5652 5655 5659 5664 5669 5674 5680 5685 5691 5697 5702 5707 5711 5716 5720 5724 5728 5732 5735 5739 5742 5746 5749 5752 5755 5759 5762 5765 5769 5772 5776 5780
5616 5617 5619 5620 5622 5624 5626 5628 5631 5635 5638 5641 5644 5648 5652 5657 5662 5667 5673 5679 5685 5690 5695 5700 5705 5709 5713 5717 5721 5725 5728 5732 5736 5739 5743 5746 5749 5752 5755 5759 5762 5766 5770
5607 5607 5608 5610 5611 5613 5615 5617 5620 5623 5626 5629 5632 5636 5640 5645 5649 5655 5660 5666 5672 5678 5684 5689 5693 5698 5703 5707 5711 5715 5718 5722 5726 5729 5733 5736 5739 5742 5745 5749 5753 5756 5760
5597 5598 5598 5599 5601 5603 5605 5607 5609 5612 5615 5617 5621 5624 5628 5633 5637 5642 5648 5654 5660 5666 5671 5676 5682 5687 5691 5696 5700 5704 5708 5712 5715 5719 5723 5726 5729 5732 5735 5739 5742 5746 5750
5588 5588 5588 5589 5591 5593 5594 5596 5599 5601 5604 5606 5609 5612 5616 5620 5625 5630 5636 5641 5647 5653 5659 5664 5670 5675 5679 5684 5688 5692 5697 5701 5705 5708 5712 5716 5719 5722 5725 5729 5732 5735 5739
5579 5579 5579 5579 5581 5582 5584 5586 5589 5591 5592 5594 5597 5600 5603 5607 5612 5617 5623 5629 5635 5640 5646 5652 5657 5663 5668 5672 5677 5681 5685 5689 5694 5698 5701 5705 5709 5711 5715 5718 5721 5725 5729
5570 5570 5570 5570 5571 5573 5575 5576 5578 5580 5582 5583 5586 5588 5591 5595 5600 5605 5610 5616 5622 5628 5634 5639 5645 5650 5655 5660 5664 5669 5673 5678 5682 5686 5690 5693 5697 5700 5704 5707 5711 5714 5717
5562 5562 5561 5562 5562 5563 5565 5567 5568 5570 5571 5573 5575 5578 5581 5585 5589 5593 5598 5603 5609 5616 5621 5627 5633 5638 5643 5647 5652 5656 5661 5665 5670 5674 5678 5682 5685 5688 5692 5696 5699 5702 5706
5553 5553 5552 5552 5553 5553 5555 5557 5558 5560 5561 5563 5565 5568 5571 5574 5578 5582 5586 5592 5597 5603 5609 5615 5620 5625 5629 5634 5639 5643 5648 5652 5657 5661 5665 5669 5673 5676 5680 5683 5687 5691 5694
5545 5544 5544 5544 5544 5544 5545 5546 5548 5550 5551 5553 5555 5558 5561 5564 5568 5571 5576 5581 5586 5591 5596 5602 5607 5611 5616 5621 5625 5630 5634 5639 5643 5647 5651 5655 5659 5663 5667 5671 5675 5678 5682
5536 5536 5535 5534 5534 5535 5536 5537 5539 5540 5542 5544 5546 5548 5551 5554 5558 5562 5566 5571 5575 5579 5584 5589 5593 5598 5602 5607 5611 5616 5620 5625 5629 5634 5638 5642 5646 5650 5654 5658 5662 5666 5669
5528 5527 5526 5525 5525 5525 5526 5528 5529 5530 5532 5535 5537 5539 5542 5546 5549 5553 5556 5560 5564 5567 5572 5576 5579 5583 5588 5592 5597 5601 5606 5611 5616 5620 5624 5628 5632 5636 5640 5644 5649 5652 5656
5519 5518 5517 5516 5516 5516 5517 5518 5520 5521 5523 5525 5527 5530 5533 5537 5539 5543 5546 5549 5552 5556 5559 5562 5565 5570 5574 5578 5582 5587 5591 5597 5602 5606 5610 5614 5618 5622 5626 5631 5635 5639 5642
5509 5509 5508 5508 5508 5508 5508 5509 5511 5513 5514 5516 5518 5521 5524 5527 5530 5532 5535 5538 5541 5544 5547 5550 5553 5556 5560 5564 5568 5572 5577 5582 5588 5592 5597 5601 5605 5609 5613 5617 5622 5626 5629
5500 5500 5500 5499 5499 5499 5500 5501 5503 5504 5506 5507 5509 5512 5514 5517 5520 5523 5525 5528 5531 5533 5536 5539 5542 5544 5548 5551 5555 5559 5564 5569 5575 5579 5583 5588 5592 5595 5598 5603 5608 5612 5615
5492 5491 5491 5491 5491 5491 5491 5493 5494 5496 5497 5499 5501 5503 5505 5508 5511 5514 5516 5518 5521 5523 5526 5529 5531 5534 5537 5540 5544 5547 5552 5556 5561 5566 5570 5574 5578 5582 5585 5590 5595 5599 5602
5483 5483 5483 5483 5482 5483 5483 5484 5486 5488 5489 5491 5493 5495 5497 5500 5502 5505 5507 5509 5511 5514 5516 5518 5521 5523 5526 5529 5532 5536 5540 5544 5549 5554 5558 5562 5565 5568 5572 5576 5581 5584 5587
5475 5475 5475 5475 5475 5475 5475 5477 5478 5479 5481 5483 5485 5487 5489 5491 5493 5496 5498 5500 5502 5504 5506 5508 5511 5513 5516 5518 5521 5525 5528 5532 5537 5541 5545 5549 5552 5555 5559 5563 5567 5570 5573
5467 5467 5467 5467 5467 5467 5468 5469 5470 5471 5473 5474 5476 5479 5481 5483 5485 5487 5489 5491 5493 5495 5497 5499 5501 5503 5506 5509 5511 5514 5517 5521 5525 5529 5533 5536 5539 5543 5547 5550 5553 5556 5559
5459 5459 5459 5459 5460 5460 5460 5461 5462 5463 5465 5466 5468 5470 5472 5474 5476 5478 5480 5482 5484 5486 5488 5490 5491 5494 5497 5499 5502 5504 5507 5510 5514 5517 5521 5524 5527 5531 5534 5537 5540 5543 5545
5452 5452 5451 5452 5452 5452 5453 5453 5454 5456 5457 5459 5460 5462 5464 5466 5468 5470 5472 5473 5475 5477 5479 5480 5482 5484 5487 5489 5492 5494 5497 5499 5503 5506 5509 5512 5515 5518 5522 5524 5527 5529 5532